Location: Dompnac
(44.5644°N, 4.1026°E)
Time: 10:50:24
(UTC+00:00)

USA 234 - Visible Passes

Search period start: 17 January 2021 00:00
Search period end: 27 January 2021 00:00
Orbit: 1098 x 1110 km, 123.0° (Epoch: 09 January)

Date Brightness Start Highest point End Pass type
(mag) Time Alt. Az. Time Alt. Az. Time Alt. Az.
17 Jan 4.2 17:19:08 10° ENE 17:24:44 31° N 17:30:20 10° NW visible
17 Jan 3.4 19:06:27 53° NE 19:06:55 54° NNE 19:13:16 10° NW visible
17 Jan 5.0 20:53:48 25° WNW 20:53:48 25° WNW 20:56:21 10° NW visible
18 Jan 3.9 18:21:59 28° ENE 18:24:31 38° NNE 18:30:28 10° NW visible
18 Jan 4.0 20:09:19 45° NW 20:09:19 45° NW 20:13:39 10° NW visible
19 Jan 4.2 17:37:28 13° ENE 17:42:16 31° N 17:47:53 10° NW visible
19 Jan 3.5 19:24:49 53° NNE 19:24:49 53° NNE 19:30:49 10° NW visible
19 Jan 5.4 21:12:10 19° WNW 21:12:10 19° WNW 21:13:54 10° WNW visible
20 Jan 3.9 18:40:19 33° NE 18:42:04 38° NNE 18:48:01 10° NW visible
20 Jan 4.5 20:27:39 35° NW 20:27:39 35° NW 20:31:12 10° NW visible
21 Jan 4.2 17:55:47 17° ENE 17:59:49 31° N 18:05:26 10° NW visible
21 Jan 3.7 19:43:08 49° N 19:43:08 49° N 19:48:22 10° NW visible
21 Jan 5.6 21:30:29 15° WNW 21:30:29 15° WNW 21:31:27 10° WNW visible
22 Jan 4.4 17:12:10 10° NE 17:17:39 30° N 17:23:10 10° WNW visible
22 Jan 3.8 18:58:36 36° NE 18:59:37 38° NNE 19:05:34 10° NW visible
22 Jan 4.8 20:45:56 28° NW 20:45:56 28° NW 20:48:46 10° NW visible
23 Jan 4.2 18:14:03 20° NE 18:17:22 31° N 18:22:59 10° NW visible
23 Jan 4.0 20:01:23 42° NNW 20:01:23 42° NNW 20:05:55 10° NW visible
23 Jan 5.8 21:48:44 11° WNW 21:48:44 11° WNW 21:49:00 10° WNW visible
24 Jan 4.4 17:29:42 10° NE 17:35:12 30° N 17:40:42 10° WNW visible
24 Jan 3.9 19:16:50 38° NNE 19:17:10 39° NNE 19:23:07 10° NW visible
24 Jan 5.1 21:04:10 23° NW 21:04:10 23° NW 21:06:19 10° NW visible
25 Jan 4.2 18:32:16 23° NE 18:34:55 31° N 18:40:32 10° NW visible
25 Jan 4.4 20:19:36 36° NNW 20:19:36 36° NNW 20:23:29 10° NW visible
26 Jan 4.4 17:47:41 12° NE 17:52:45 30° N 17:58:14 10° WNW visible
26 Jan 4.0 19:35:02 38° NNE 19:35:02 38° NNE 19:40:41 10° NW visible
26 Jan 5.4 21:22:22 18° NW 21:22:22 18° NW 21:23:52 10° NW visible
